EWG299 EDDL-LEPA

Flight info

Callsign EWG299
Flight time N/A
Altitude 24000
Route MODRU7Z MODRU Z283 LNO/N0455F390 Z283 SOPOK DCT ROUSY DCT GTQ DCT POGOL DCT LASAT DCT MOROK DCT GILIR DCT GEVEA DCT INCUS DCT BALSI DCT RETNO DCT TUPOX DCT MTG DCT DIVKO DCT VATIR N852 VERSO L129 LUNIK LUNIK2P
Aircraft A20N/M-SDE2E3FGHIRWXY/LB1

Departure

Time 2026-05-05 16:51
Airport Düsseldorf Airport (EDDL)

Arrival

Time N/A
Airport Palma de Mallorca Airport (LEPA)
Time Latitude Longitude Altitude Speed Heading
2026-05-05 15:50 51.27890 6.76332 133 ft 0 kts 48°
2026-05-05 16:33 51.27883 6.76322 133 ft 3 kts 28°
2026-05-05 16:33 51.27867 6.76310 133 ft 3 kts
2026-05-05 16:33 51.27848 6.76313 132 ft 3 kts 328°
2026-05-05 16:33 51.27840 6.76323 133 ft 0 kts 306°
2026-05-05 16:35 51.27842 6.76298 132 ft 5 kts 276°
2026-05-05 16:35 51.27842 6.76250 133 ft 4 kts 270°
2026-05-05 16:36 51.27842 6.76198 132 ft 6 kts 270°
2026-05-05 16:36 51.27841 6.76137 133 ft 5 kts 262°
2026-05-05 16:36 51.27830 6.76088 133 ft 5 kts 236°
2026-05-05 16:36 51.27806 6.76056 132 ft 4 kts 209°
2026-05-05 16:37 51.27783 6.76045 133 ft 3 kts 189°
2026-05-05 16:37 51.27720 6.76041 133 ft 20 kts 180°
2026-05-05 16:37 51.27630 6.76045 133 ft 8 kts 168°
2026-05-05 16:37 51.27607 6.76058 133 ft 0 kts 158°
2026-05-05 16:38 51.27585 6.76072 133 ft 6 kts 156°
2026-05-05 16:39 51.27549 6.76101 134 ft 5 kts 154°
2026-05-05 16:39 51.27515 6.76113 133 ft 5 kts 188°
2026-05-05 16:39 51.27481 6.76053 133 ft 9 kts 244°
2026-05-05 16:39 51.27470 6.75961 133 ft 5 kts 286°
2026-05-05 16:40 51.27471 6.75959 133 ft 0 kts 287°
2026-05-05 16:40 51.27472 6.75954 133 ft 1 kts 289°
2026-05-05 16:40 51.27493 6.75919 133 ft 7 kts 336°
2026-05-05 16:40 51.27542 6.75888 133 ft 8 kts 337°
2026-05-05 16:41 51.27593 6.75851 132 ft 9 kts 335°
2026-05-05 16:41 51.27606 6.75842 133 ft 0 kts 336°
2026-05-05 16:41 51.27632 6.75823 132 ft 15 kts 337°
2026-05-05 16:41 51.27664 6.75813 132 ft 0 kts
2026-05-05 16:43 51.27689 6.75814 132 ft 8 kts
2026-05-05 16:43 51.27735 6.75817 132 ft 4 kts
2026-05-05 16:44 51.27742 6.75817 132 ft 0 kts
2026-05-05 16:44 51.27796 6.75817 133 ft 13 kts 360°
2026-05-05 16:44 51.27860 6.75752 133 ft 3 kts 282°
2026-05-05 16:45 51.27862 6.75729 133 ft 8 kts 277°
2026-05-05 16:45 51.27862 6.75716 132 ft 0 kts 276°
2026-05-05 16:45 51.27866 6.75669 128 ft 9 kts 283°
2026-05-05 16:46 51.27898 6.75568 129 ft 10 kts 275°
2026-05-05 16:46 51.27870 6.75471 124 ft 9 kts 233°
2026-05-05 16:46 51.27845 6.75400 130 ft 0 kts 262°
2026-05-05 16:47 51.27847 6.75365 130 ft 2 kts 288°
2026-05-05 16:47 51.27887 6.75314 128 ft 1 kts 332°
2026-05-05 16:48 51.27888 6.75313 128 ft 0 kts 332°
2026-05-05 16:48 51.27904 6.75300 125 ft 9 kts 332°
2026-05-05 16:49 51.27975 6.75276 126 ft 12 kts 10°
2026-05-05 16:49 51.28019 6.75320 124 ft 0 kts 51°
2026-05-05 16:50 51.28019 6.75321 124 ft 2 kts 52°
2026-05-05 16:50 51.28150 6.75593 130 ft 65 kts 52°
2026-05-05 16:50 51.28578 6.76476 138 ft 134 kts 51°
2026-05-05 16:50 51.29232 6.77776 459 ft 159 kts 47°
2026-05-05 16:51 51.29978 6.79181 948 ft 177 kts 47°
2026-05-05 16:51 51.30836 6.80719 1532 ft 192 kts 49°
2026-05-05 16:51 51.31769 6.82339 2182 ft 206 kts 48°
2026-05-05 16:51 51.32797 6.84070 2893 ft 220 kts 47°
2026-05-05 16:52 51.33906 6.85876 3619 ft 234 kts 46°
2026-05-05 16:52 51.35095 6.87742 4321 ft 251 kts 45°
2026-05-05 16:52 51.36451 6.89688 4886 ft 274 kts 34°
2026-05-05 16:52 51.38244 6.90903 5072 ft 281 kts 17°
2026-05-05 16:53 51.40141 6.91652 5007 ft 280 kts 12°
2026-05-05 16:53 51.42024 6.92237 4990 ft 279 kts 10°
2026-05-05 16:53 51.43940 6.92783 4990 ft 279 kts 10°
2026-05-05 16:53 51.45859 6.93284 4994 ft 279 kts
2026-05-05 16:54 51.47788 6.93187 4991 ft 277 kts 346°
2026-05-05 16:54 51.49533 6.91926 4993 ft 274 kts 321°
2026-05-05 16:54 51.50783 6.89655 4998 ft 271 kts 297°
2026-05-05 16:54 51.51560 6.86947 4996 ft 270 kts 290°
2026-05-05 16:55 51.52227 6.84125 4995 ft 271 kts 288°
2026-05-05 16:55 51.52882 6.81289 4996 ft 271 kts 288°
2026-05-05 16:55 51.53545 6.78444 4997 ft 271 kts 289°
2026-05-05 16:55 51.54204 6.75641 4999 ft 271 kts 289°
2026-05-05 16:56 51.54875 6.72804 5002 ft 271 kts 289°
2026-05-05 16:56 51.55473 6.69942 5000 ft 270 kts 281°
2026-05-05 16:56 51.55645 6.66960 5002 ft 267 kts 264°
2026-05-05 16:56 51.55231 6.64074 5006 ft 264 kts 247°
2026-05-05 16:57 51.54455 6.61396 5004 ft 264 kts 242°
2026-05-05 16:57 51.53614 6.58811 5005 ft 264 kts 240°
2026-05-05 16:57 51.52753 6.56195 5006 ft 264 kts 240°
2026-05-05 16:57 51.51891 6.53568 5012 ft 265 kts 241°
2026-05-05 16:58 51.51036 6.50944 5010 ft 265 kts 241°
2026-05-05 16:58 51.50191 6.48345 5013 ft 265 kts 241°
2026-05-05 16:58 51.49337 6.45711 5013 ft 265 kts 241°
2026-05-05 16:58 51.48483 6.43079 5014 ft 265 kts 241°
2026-05-05 16:59 51.47630 6.40452 5016 ft 265 kts 241°
2026-05-05 16:59 51.46723 6.37919 5011 ft 264 kts 234°
2026-05-05 16:59 51.45542 6.35703 5278 ft 257 kts 221°
2026-05-05 16:59 51.44120 6.34042 6175 ft 247 kts 208°
2026-05-05 17:00 51.42592 6.32911 7392 ft 236 kts 201°
2026-05-05 17:00 51.41085 6.31990 8527 ft 230 kts 200°
2026-05-05 17:00 51.39589 6.31114 9473 ft 233 kts 200°
2026-05-05 17:00 51.38052 6.30217 10287 ft 237 kts 200°
2026-05-05 17:01 51.36495 6.29306 11126 ft 239 kts 200°
2026-05-05 17:01 51.34922 6.28383 11977 ft 242 kts 200°
2026-05-05 17:01 51.33326 6.27445 12819 ft 245 kts 200°
2026-05-05 17:01 51.31738 6.26513 13645 ft 248 kts 200°
2026-05-05 17:02 51.30108 6.25556 14395 ft 250 kts 200°
2026-05-05 17:02 51.28476 6.24599 15180 ft 250 kts 199°
2026-05-05 17:02 51.26841 6.23640 15933 ft 251 kts 200°
2026-05-05 17:02 51.25191 6.22673 16652 ft 254 kts 200°
2026-05-05 17:03 51.23523 6.21696 17404 ft 255 kts 200°
2026-05-05 17:03 51.21869 6.20728 18176 ft 256 kts 200°
2026-05-05 17:03 51.20189 6.19745 18843 ft 258 kts 200°
2026-05-05 17:03 51.18498 6.18757 19510 ft 260 kts 200°
2026-05-05 17:04 51.16794 6.17762 20187 ft 261 kts 200°
2026-05-05 17:04 51.15075 6.16760 20849 ft 263 kts 200°
2026-05-05 17:04 51.13344 6.15750 21491 ft 266 kts 201°
2026-05-05 17:04 51.11594 6.14731 22131 ft 268 kts 201°
2026-05-05 17:05 51.09851 6.13717 22744 ft 271 kts 201°
2026-05-05 17:05 51.08065 6.12678 23348 ft 274 kts 201°
2026-05-05 17:05 51.06250 6.11623 23806 ft 281 kts 201°
2026-05-05 17:05 51.04362 6.10525 23981 ft 297 kts 201°
2026-05-05 17:06 51.02391 6.09317 24006 ft 318 kts 205°
2026-05-05 17:06 51.00346 6.07677 24006 ft 338 kts 210°
2026-05-05 17:06 50.98254 6.05741 24002 ft 358 kts 212°
2026-05-05 17:06 50.96076 6.03584 24004 ft 377 kts 213°
2026-05-05 17:07 50.93792 6.01316 24005 ft 395 kts 211°
2026-05-05 17:07 50.91396 5.99101 24000 ft 411 kts 210°
2026-05-05 17:07 50.88841 5.96868 23998 ft 426 kts 209°
2026-05-05 17:07 50.86201 5.94631 23991 ft 431 kts 208°
2026-05-05 17:08 50.83537 5.92404 23991 ft 432 kts 208°
2026-05-05 17:08 50.80875 5.90167 23992 ft 432 kts 208°
2026-05-05 17:08 50.78254 5.87939 23991 ft 432 kts 209°
2026-05-05 17:08 50.75605 5.85671 23989 ft 432 kts 209°
2026-05-05 17:09 50.72951 5.83387 23987 ft 432 kts 209°
2026-05-05 17:09 50.70301 5.81102 23989 ft 433 kts 209°
2026-05-05 17:09 50.67695 5.78856 23990 ft 433 kts 209°
2026-05-05 17:09 50.65044 5.76575 23990 ft 433 kts 209°
2026-05-05 17:10 50.62386 5.74356 23982 ft 433 kts 206°
2026-05-05 17:10 50.59546 5.72683 23987 ft 434 kts 196°
2026-05-05 17:10 50.56568 5.71895 23988 ft 436 kts 185°
2026-05-05 17:10 50.53552 5.71941 23989 ft 437 kts 179°
2026-05-05 17:11 50.50523 5.72324 23981 ft 438 kts 176°
2026-05-05 17:11 50.47490 5.72891 23987 ft 438 kts 174°
2026-05-05 17:11 50.44451 5.73536 23979 ft 438 kts 174°
2026-05-05 17:11 50.41467 5.74181 23972 ft 438 kts 174°
2026-05-05 17:12 50.38438 5.74822 23969 ft 438 kts 174°
2026-05-05 17:12 50.35410 5.75440 23973 ft 438 kts 174°
2026-05-05 17:12 50.32373 5.76040 23972 ft 438 kts 175°
2026-05-05 17:12 50.29346 5.76623 23967 ft 438 kts 175°
2026-05-05 17:13 50.26358 5.77260 23964 ft 439 kts 171°
2026-05-05 17:13 50.23366 5.78325 23967 ft 440 kts 168°
2026-05-05 17:13 50.20394 5.79525 23962 ft 440 kts 167°
2026-05-05 17:13 50.17432 5.80804 23960 ft 440 kts 166°
2026-05-05 17:14 50.14519 5.82105 23962 ft 440 kts 166°
2026-05-05 17:14 50.11573 5.83435 23959 ft 440 kts 166°
2026-05-05 17:14 50.08625 5.84766 23959 ft 440 kts 166°
2026-05-05 17:14 50.05669 5.86093 23954 ft 440 kts 166°
2026-05-05 17:15 50.02749 5.87397 23955 ft 440 kts 166°
2026-05-05 17:15 49.99800 5.88706 23957 ft 439 kts 166°
2026-05-05 17:15 49.96852 5.90010 23959 ft 439 kts 166°
2026-05-05 17:15 49.93947 5.91291 23952 ft 439 kts 167°
2026-05-05 17:16 49.90991 5.92593 23956 ft 439 kts 167°
2026-05-05 17:16 49.88044 5.93888 23959 ft 439 kts 167°
2026-05-05 17:16 49.85101 5.95180 23956 ft 438 kts 167°
2026-05-05 17:16 49.82194 5.96456 23955 ft 439 kts 167°
2026-05-05 17:17 49.79250 5.97746 23958 ft 438 kts 167°
2026-05-05 17:17 49.76298 5.99038 23963 ft 438 kts 167°
2026-05-05 17:17 49.73395 6.00307 23961 ft 438 kts 167°
2026-05-05 17:17 49.70453 6.01592 23965 ft 438 kts 167°
2026-05-05 17:18 49.67516 6.02872 23964 ft 438 kts 167°
2026-05-05 17:18 49.64574 6.04153 23966 ft 438 kts 167°
2026-05-05 17:18 49.61673 6.05415 23964 ft 438 kts 167°
2026-05-05 17:18 49.58743 6.06688 23962 ft 438 kts 167°
2026-05-05 17:19 49.55814 6.07959 23966 ft 437 kts 167°
2026-05-05 17:19 49.52876 6.09232 23964 ft 437 kts 166°
2026-05-05 17:19 49.49956 6.10606 23963 ft 439 kts 162°
2026-05-05 17:19 49.47186 6.12626 23961 ft 442 kts 152°
2026-05-05 17:20 49.44620 6.15256 23959 ft 444 kts 147°
2026-05-05 17:20 49.42173 6.18069 23963 ft 445 kts 145°
2026-05-05 17:20 49.39747 6.21038 23961 ft 445 kts 144°
2026-05-05 17:20 49.37349 6.24055 23960 ft 445 kts 143°
2026-05-05 17:21 49.34956 6.27083 23959 ft 445 kts 143°
2026-05-05 17:21 49.33370 6.29083 23958 ft 445 kts 143°
2026-05-05 17:21 49.30974 6.32085 23953 ft 445 kts 143°
2026-05-05 17:22 49.26155 6.38058 23957 ft 444 kts 144°
2026-05-05 17:22 49.23778 6.40982 23960 ft 444 kts 144°
2026-05-05 17:22 49.21367 6.43938 23961 ft 443 kts 144°
2026-05-05 17:22 49.18954 6.46892 23958 ft 443 kts 144°
2026-05-05 17:23 49.16537 6.49846 23961 ft 443 kts 144°
2026-05-05 17:23 49.14129 6.52786 23964 ft 443 kts 144°
2026-05-05 17:23 49.11746 6.55693 23960 ft 442 kts 144°
2026-05-05 17:23 49.09338 6.58627 23960 ft 442 kts 144°
2026-05-05 17:24 49.06932 6.61557 23959 ft 442 kts 144°
2026-05-05 17:24 49.04521 6.64488 23964 ft 442 kts 144°
2026-05-05 17:24 49.02100 6.67291 23958 ft 440 kts 149°
2026-05-05 17:24 48.99450 6.69521 23953 ft 424 kts 159°
2026-05-05 17:25 48.96715 6.70871 23953 ft 405 kts 169°
2026-05-05 17:25 48.94851 6.71280 23965 ft 414 kts 176°
2026-05-05 17:25 48.90901 6.71519 23960 ft 430 kts 181°
2026-05-05 17:25 48.87933 6.71448 24068 ft 433 kts 181°
2026-05-05 17:26 48.84903 6.71285 23965 ft 437 kts 182°
2026-05-05 17:26 48.81853 6.71095 23961 ft 437 kts 182°
2026-05-05 17:26 48.78810 6.70914 23960 ft 437 kts 182°
2026-05-05 17:26 48.75766 6.70753 23963 ft 436 kts 181°
2026-05-05 17:27 48.72725 6.70610 23962 ft 436 kts 181°
2026-05-05 17:27 48.69723 6.70484 23963 ft 436 kts 181°
2026-05-05 17:27 48.66698 6.70364 23963 ft 435 kts 181°
2026-05-05 17:27 48.63664 6.70248 23967 ft 435 kts 181°
2026-05-05 17:28 48.60633 6.70133 23967 ft 435 kts 181°
2026-05-05 17:28 48.57615 6.70019 23969 ft 434 kts 181°
2026-05-05 17:28 48.54621 6.69903 23965 ft 434 kts 181°
2026-05-05 17:28 48.51596 6.69787 23965 ft 434 kts 181°
2026-05-05 17:29 48.48566 6.69670 23968 ft 433 kts 181°
2026-05-05 17:29 48.45544 6.69554 23972 ft 433 kts 181°
2026-05-05 17:29 48.42527 6.69438 23973 ft 433 kts 181°
2026-05-05 17:29 48.39542 6.69324 23975 ft 432 kts 181°
2026-05-05 17:30 48.36533 6.69208 23974 ft 432 kts 181°
2026-05-05 17:30 48.33530 6.69093 23978 ft 431 kts 181°
2026-05-05 17:30 48.30524 6.68977 23979 ft 431 kts 181°
2026-05-05 17:30 48.27517 6.68861 23979 ft 431 kts 181°
2026-05-05 17:31 48.24553 6.68747 23980 ft 431 kts 181°
2026-05-05 17:31 48.21556 6.68632 23985 ft 430 kts 181°
2026-05-05 17:31 48.18563 6.68517 23986 ft 430 kts 181°
2026-05-05 17:31 48.15556 6.68402 23987 ft 430 kts 181°
2026-05-05 17:32 48.12569 6.68287 23989 ft 430 kts 181°
2026-05-05 17:32 48.09574 6.68173 23989 ft 430 kts 181°
2026-05-05 17:32 48.06612 6.68061 23993 ft 430 kts 181°
2026-05-05 17:32 48.03611 6.67947 23994 ft 430 kts 181°
2026-05-05 17:33 48.00603 6.67833 23994 ft 430 kts 181°
2026-05-05 17:33 47.97641 6.67721 23998 ft 430 kts 181°
2026-05-05 17:33 47.94646 6.67608 24002 ft 430 kts 181°
2026-05-05 17:33 47.91644 6.67495 24003 ft 431 kts 181°
2026-05-05 17:34 47.88638 6.67382 24006 ft 431 kts 181°
2026-05-05 17:34 47.85673 6.67270 24006 ft 431 kts 181°
2026-05-05 17:34 47.82661 6.67157 24007 ft 431 kts 181°
2026-05-05 17:34 47.79658 6.67043 24012 ft 432 kts 181°
2026-05-05 17:35 47.76651 6.66930 24008 ft 432 kts 181°
2026-05-05 17:35 47.73674 6.66819 24003 ft 432 kts 181°
2026-05-05 17:35 47.70657 6.66706 24004 ft 432 kts 182°
2026-05-05 17:35 47.67646 6.66593 24000 ft 433 kts 182°
2026-05-05 17:36 47.64625 6.66479 24000 ft 433 kts 182°
2026-05-05 17:36 47.61604 6.66366 24000 ft 433 kts 182°
2026-05-05 17:36 47.58597 6.66253 23999 ft 433 kts 182°
2026-05-05 17:36 47.55618 6.66142 23994 ft 433 kts 182°
2026-05-05 17:37 47.52589 6.66029 23995 ft 433 kts 182°
2026-05-05 17:37 47.49585 6.65918 23991 ft 433 kts 182°
2026-05-05 17:37 47.46572 6.65806 23995 ft 433 kts 182°
2026-05-05 17:37 47.43563 6.65532 23996 ft 432 kts 188°
2026-05-05 17:38 47.40663 6.64591 23997 ft 432 kts 198°
2026-05-05 17:38 47.37914 6.62804 24000 ft 432 kts 210°
2026-05-05 17:38 47.35421 6.60311 24006 ft 432 kts 216°
2026-05-05 17:38 47.33054 6.57564 24010 ft 432 kts 219°
2026-05-05 17:39 47.30761 6.54695 24014 ft 432 kts 220°
2026-05-05 17:39 47.28527 6.51815 24017 ft 432 kts 220°
2026-05-05 17:39 47.26266 6.48888 24033 ft 431 kts 220°
2026-05-05 17:39 47.23999 6.45975 24035 ft 431 kts 220°
2026-05-05 17:40 47.21731 6.43093 24033 ft 431 kts 220°
2026-05-05 17:40 47.19453 6.40225 24035 ft 430 kts 220°
2026-05-05 17:40 47.17193 6.37399 24034 ft 430 kts 220°
2026-05-05 17:40 47.14908 6.34554 24031 ft 430 kts 219°
2026-05-05 17:41 47.12650 6.31750 24030 ft 429 kts 219°
2026-05-05 17:41 47.10357 6.28910 24029 ft 429 kts 219°
2026-05-05 17:41 47.07919 6.26378 24030 ft 428 kts 210°
2026-05-05 17:41 47.05224 6.24518 24030 ft 428 kts 200°
2026-05-05 17:42 47.02333 6.23459 24030 ft 428 kts 191°
2026-05-05 17:42 46.99393 6.22811 24034 ft 428 kts 188°
2026-05-05 17:42 46.96453 6.22362 24031 ft 428 kts 186°
2026-05-05 17:42 46.93478 6.22002 24037 ft 428 kts 186°
2026-05-05 17:43 46.90511 6.21671 24031 ft 428 kts 186°
2026-05-05 17:43 46.87542 6.21336 24035 ft 427 kts 186°
2026-05-05 17:43 46.84576 6.20983 24031 ft 427 kts 186°
2026-05-05 17:43 46.81637 6.20616 24035 ft 427 kts 186°
2026-05-05 17:44 46.78676 6.20234 24039 ft 426 kts 187°
2026-05-05 17:44 46.75717 6.19844 24036 ft 426 kts 187°
2026-05-05 17:44 46.72761 6.19451 24039 ft 426 kts 187°
2026-05-05 17:44 46.69806 6.19057 24040 ft 426 kts 187°
2026-05-05 17:45 46.66851 6.18664 24038 ft 426 kts 187°
2026-05-05 17:45 46.63901 6.18273 24035 ft 425 kts 187°
2026-05-05 17:45 46.60953 6.17883 24040 ft 425 kts 187°
2026-05-05 17:45 46.58035 6.17498 24042 ft 425 kts 187°
2026-05-05 17:46 46.55086 6.17109 24040 ft 425 kts 187°
2026-05-05 17:46 46.52135 6.16721 24043 ft 425 kts 187°
2026-05-05 17:46 46.49181 6.16333 24045 ft 424 kts 187°
2026-05-05 17:46 46.46281 6.15953 24045 ft 424 kts 187°
2026-05-05 17:47 46.43330 6.15566 24047 ft 424 kts 187°
2026-05-05 17:47 46.40381 6.15180 24050 ft 424 kts 187°
2026-05-05 17:47 46.37438 6.14795 24044 ft 424 kts 187°
2026-05-05 17:47 46.34489 6.14409 24049 ft 424 kts 187°
2026-05-05 17:48 46.31586 6.14030 24048 ft 424 kts 187°
2026-05-05 17:48 46.28648 6.13647 24047 ft 424 kts 187°
2026-05-05 17:48 46.25706 6.13253 24048 ft 423 kts 187°
2026-05-05 17:48 46.22774 6.12735 24048 ft 423 kts 189°
2026-05-05 17:49 46.19855 6.12114 24050 ft 422 kts 191°
2026-05-05 17:49 46.16987 6.11455 24046 ft 422 kts 191°
2026-05-05 17:49 46.14078 6.10772 24046 ft 422 kts 191°
2026-05-05 17:49 46.11168 6.10094 24045 ft 422 kts 191°
2026-05-05 17:50 46.08288 6.09433 24046 ft 422 kts 191°
2026-05-05 17:50 46.05381 6.08776 24022 ft 423 kts 190°
2026-05-05 17:50 46.02468 6.08125 24024 ft 421 kts 190°
2026-05-05 17:50 45.99578 6.07485 24019 ft 420 kts 190°
2026-05-05 17:51 45.96682 6.06846 24017 ft 420 kts 190°
2026-05-05 17:51 45.93825 6.06216 24023 ft 420 kts 190°
2026-05-05 17:51 45.90936 6.05579 24022 ft 420 kts 190°
2026-05-05 17:51 45.88037 6.04940 24018 ft 420 kts 190°
2026-05-05 17:52 45.85138 6.04302 24021 ft 420 kts 190°
2026-05-05 17:52 45.82238 6.03663 24021 ft 420 kts 190°
2026-05-05 17:52 45.79382 6.03032 24022 ft 420 kts 190°
2026-05-05 17:52 45.76475 6.02390 24024 ft 421 kts 190°
2026-05-05 17:53 45.73573 6.01750 24022 ft 421 kts 190°
2026-05-05 17:53 45.70714 6.01119 24022 ft 421 kts 190°
2026-05-05 17:53 45.67816 6.00482 24022 ft 421 kts 190°
2026-05-05 17:53 45.64913 5.99844 24021 ft 421 kts 190°
2026-05-05 17:54 45.62016 5.99207 24017 ft 420 kts 190°
2026-05-05 17:54 45.59119 5.98570 24026 ft 420 kts 190°
2026-05-05 17:54 45.56224 5.97935 24021 ft 420 kts 191°
2026-05-05 17:54 45.53334 5.97302 24025 ft 420 kts 190°
2026-05-05 17:55 45.50449 5.96670 24021 ft 419 kts 191°
2026-05-05 17:55 45.47594 5.96023 24020 ft 419 kts 192°
2026-05-05 17:55 45.44734 5.95242 24023 ft 418 kts 193°
2026-05-05 17:55 45.41889 5.94371 24026 ft 417 kts 194°
2026-05-05 17:56 45.39055 5.93461 24027 ft 417 kts 195°
2026-05-05 17:56 45.36223 5.92540 24024 ft 416 kts 195°
2026-05-05 17:56 45.33398 5.91629 24036 ft 415 kts 195°
2026-05-05 17:56 45.30611 5.90741 24032 ft 415 kts 194°
2026-05-05 17:57 45.27781 5.89848 24031 ft 414 kts 194°
2026-05-05 17:57 45.24956 5.88965 24029 ft 413 kts 194°
2026-05-05 17:57 45.22179 5.88100 24035 ft 413 kts 194°
2026-05-05 17:57 45.19366 5.87227 24030 ft 412 kts 194°
2026-05-05 17:58 45.16555 5.86357 24030 ft 412 kts 194°
2026-05-05 17:58 45.13777 5.85497 24030 ft 412 kts 194°
2026-05-05 17:58 45.10976 5.84632 24036 ft 411 kts 194°
2026-05-05 17:58 45.08180 5.83769 24034 ft 411 kts 194°
2026-05-05 17:59 45.05382 5.82905 24035 ft 411 kts 194°
2026-05-05 17:59 45.02585 5.82041 24025 ft 411 kts 195°
2026-05-05 17:59 44.99789 5.81179 24046 ft 411 kts 194°
2026-05-05 17:59 44.96996 5.80320 24037 ft 410 kts 194°
2026-05-05 18:00 44.94210 5.79462 24055 ft 410 kts 194°
2026-05-05 18:00 44.91457 5.78616 24048 ft 410 kts 194°
2026-05-05 18:00 44.88665 5.77758 24040 ft 410 kts 194°
2026-05-05 18:00 44.85872 5.76901 24047 ft 409 kts 195°
2026-05-05 18:01 44.83086 5.76048 24053 ft 409 kts 194°
2026-05-05 18:01 44.80293 5.75193 24053 ft 410 kts 194°
2026-05-05 18:01 44.77534 5.74349 24052 ft 410 kts 194°
2026-05-05 18:01 44.74748 5.73499 24058 ft 410 kts 194°
2026-05-05 18:02 44.71956 5.72648 23934 ft 410 kts 194°
2026-05-05 18:02 44.69163 5.71795 23914 ft 411 kts 194°
2026-05-05 18:02 44.66366 5.70942 23920 ft 410 kts 194°
2026-05-05 18:02 44.63563 5.70088 23917 ft 410 kts 194°
2026-05-05 18:03 44.60803 5.69249 23915 ft 410 kts 194°
2026-05-05 18:03 44.58006 5.68400 23923 ft 411 kts 195°
2026-05-05 18:03 44.55203 5.67549 23920 ft 411 kts 194°
2026-05-05 18:03 44.52420 5.66705 23918 ft 411 kts 194°
2026-05-05 18:04 44.49616 5.65855 23928 ft 412 kts 194°
2026-05-05 18:04 44.46812 5.65006 23918 ft 412 kts 194°
2026-05-05 18:04 44.44002 5.64157 23926 ft 412 kts 194°
2026-05-05 18:04 44.41197 5.63311 23921 ft 412 kts 194°
2026-05-05 18:05 44.38449 5.62351 23927 ft 412 kts 199°
2026-05-05 18:05 44.35731 5.61057 23924 ft 412 kts 201°
2026-05-05 18:05 44.33040 5.59671 23934 ft 412 kts 202°
2026-05-05 18:05 44.30361 5.58227 23925 ft 412 kts 203°
2026-05-05 18:06 44.27685 5.56754 23923 ft 413 kts 203°
2026-05-05 18:06 44.26818 5.56274 23920 ft 413 kts 203°
2026-05-05 18:06 44.22359 5.53805 23928 ft 414 kts 203°
2026-05-05 18:06 44.19670 5.52324 23931 ft 414 kts 203°
2026-05-05 18:07 44.16977 5.50847 23930 ft 414 kts 203°
2026-05-05 18:07 44.14322 5.49396 23929 ft 414 kts 203°
2026-05-05 18:07 44.11627 5.47927 23928 ft 414 kts 203°
2026-05-05 18:07 44.08942 5.46468 23927 ft 414 kts 203°
2026-05-05 18:08 44.06247 5.45005 23925 ft 414 kts 203°
2026-05-05 18:08 44.03599 5.43568 23928 ft 414 kts 203°
2026-05-05 18:08 44.00902 5.42106 23926 ft 414 kts 203°
2026-05-05 18:08 43.98221 5.40654 23925 ft 413 kts 203°
2026-05-05 18:09 43.95544 5.39204 23928 ft 413 kts 203°
2026-05-05 18:09 43.92864 5.37754 23925 ft 412 kts 203°
2026-05-05 18:09 43.90220 5.36325 23924 ft 412 kts 203°
2026-05-05 18:09 43.87554 5.34883 23923 ft 411 kts 203°
2026-05-05 18:10 43.84888 5.33444 23920 ft 410 kts 203°
2026-05-05 18:10 43.82223 5.32006 23919 ft 410 kts 203°
2026-05-05 18:10 43.79600 5.30592 23912 ft 409 kts 204°
2026-05-05 18:10 43.76949 5.29165 23914 ft 408 kts 203°
2026-05-05 18:11 43.74300 5.27741 23915 ft 408 kts 203°
2026-05-05 18:11 43.72544 5.26797 23913 ft 408 kts 203°
2026-05-05 18:11 43.69896 5.25375 23909 ft 407 kts 204°
2026-05-05 18:11 43.67244 5.23953 23914 ft 407 kts 203°
2026-05-05 18:12 43.64605 5.22538 23910 ft 406 kts 203°
2026-05-05 18:12 43.61994 5.21140 23909 ft 406 kts 204°
2026-05-05 18:12 43.59360 5.19731 23910 ft 405 kts 203°
2026-05-05 18:12 43.56723 5.18321 23914 ft 404 kts 204°
2026-05-05 18:13 43.54095 5.16917 23911 ft 404 kts 203°
2026-05-05 18:13 43.51499 5.15532 23914 ft 404 kts 203°
2026-05-05 18:13 43.48867 5.14129 23912 ft 404 kts 203°
2026-05-05 18:13 43.46244 5.12733 23912 ft 404 kts 203°
2026-05-05 18:14 43.43615 5.11334 23911 ft 403 kts 203°
2026-05-05 18:14 43.41031 5.09956 23911 ft 403 kts 204°
2026-05-05 18:14 43.38513 5.08279 23912 ft 400 kts 211°
2026-05-05 18:14 43.36125 5.06286 23912 ft 400 kts 213°
2026-05-05 18:15 43.33795 5.04202 23910 ft 399 kts 215°
2026-05-05 18:15 43.31492 5.02056 23910 ft 399 kts 216°
2026-05-05 18:15 43.29230 4.99909 23911 ft 399 kts 216°
2026-05-05 18:15 43.26940 4.97724 23910 ft 399 kts 216°
2026-05-05 18:16 43.24651 4.95546 23909 ft 399 kts 216°
2026-05-05 18:16 43.22364 4.93378 23908 ft 399 kts 216°
2026-05-05 18:16 43.20109 4.91252 23909 ft 398 kts 216°
2026-05-05 18:16 43.17818 4.89099 23904 ft 398 kts 216°
2026-05-05 18:17 43.15531 4.86956 23904 ft 397 kts 216°
2026-05-05 18:17 43.13248 4.84820 23904 ft 397 kts 215°
2026-05-05 18:17 43.10964 4.82686 23905 ft 396 kts 215°
2026-05-05 18:17 43.08712 4.80582 23910 ft 396 kts 215°
2026-05-05 18:18 43.06416 4.78474 23907 ft 396 kts 213°
2026-05-05 18:18 43.04044 4.76542 23907 ft 396 kts 212°
2026-05-05 18:18 43.01647 4.74661 23906 ft 396 kts 211°
2026-05-05 18:18 42.99239 4.72813 23905 ft 396 kts 211°
2026-05-05 18:19 42.96857 4.71008 23906 ft 396 kts 211°
2026-05-05 18:19 42.94438 4.69186 23900 ft 395 kts 211°
2026-05-05 18:19 42.92029 4.67372 23902 ft 395 kts 211°
2026-05-05 18:19 42.89620 4.65559 23900 ft 394 kts 211°
2026-05-05 18:20 42.87246 4.63770 23898 ft 394 kts 211°
2026-05-05 18:20 42.84840 4.61955 23895 ft 394 kts 211°
2026-05-05 18:20 42.82432 4.60140 23898 ft 395 kts 211°
2026-05-05 18:20 42.80026 4.58326 23899 ft 395 kts 211°
2026-05-05 18:21 42.77640 4.56529 23896 ft 395 kts 211°
2026-05-05 18:21 42.75231 4.54716 23900 ft 395 kts 211°
2026-05-05 18:21 42.72815 4.52900 23895 ft 395 kts 211°
2026-05-05 18:21 42.70399 4.51086 23895 ft 395 kts 211°
2026-05-05 18:22 42.67986 4.49275 23891 ft 395 kts 211°
2026-05-05 18:22 42.65606 4.47492 23892 ft 395 kts 211°
2026-05-05 18:22 42.63193 4.45684 23889 ft 395 kts 211°
2026-05-05 18:22 42.60774 4.43874 23890 ft 395 kts 211°
2026-05-05 18:23 42.58388 4.42091 23890 ft 395 kts 211°
2026-05-05 18:23 42.55976 4.40289 23890 ft 395 kts 211°
2026-05-05 18:23 42.53569 4.38493 23891 ft 395 kts 211°
2026-05-05 18:23 42.51158 4.36695 23892 ft 394 kts 211°
2026-05-05 18:24 42.48748 4.34900 23893 ft 394 kts 211°
2026-05-05 18:24 42.46339 4.33107 23886 ft 394 kts 211°
2026-05-05 18:24 42.43957 4.31336 23890 ft 394 kts 211°
2026-05-05 18:24 42.41547 4.29545 23889 ft 394 kts 211°
2026-05-05 18:25 42.39166 4.27777 23887 ft 394 kts 211°
2026-05-05 18:25 42.37537 4.26569 23886 ft 394 kts 211°
2026-05-05 18:25 42.34361 4.24215 23884 ft 393 kts 211°
2026-05-05 18:25 42.31958 4.22436 23886 ft 393 kts 211°
2026-05-05 18:26 42.29552 4.20657 23885 ft 393 kts 211°
2026-05-05 18:26 42.27178 4.18902 23884 ft 393 kts 211°
2026-05-05 18:26 42.24772 4.17125 23887 ft 393 kts 211°
2026-05-05 18:26 42.22369 4.15352 23885 ft 393 kts 211°
2026-05-05 18:27 42.19967 4.13582 23884 ft 393 kts 211°
2026-05-05 18:27 42.17565 4.11812 23883 ft 393 kts 211°
2026-05-05 18:27 42.15167 4.10048 23882 ft 393 kts 211°
2026-05-05 18:27 42.12767 4.08284 23882 ft 393 kts 211°
2026-05-05 18:28 42.07959 4.04754 23875 ft 393 kts 211°
2026-05-05 18:28 42.05589 4.03016 23881 ft 393 kts 211°
2026-05-05 18:28 42.03181 4.01253 23881 ft 393 kts 211°
2026-05-05 18:29 42.00777 3.99493 23880 ft 392 kts 211°
2026-05-05 18:29 41.98376 3.97737 23883 ft 392 kts 211°
2026-05-05 18:29 41.95974 3.95982 23884 ft 392 kts 211°
2026-05-05 18:29 41.93524 3.94355 23883 ft 395 kts 206°
2026-05-05 18:30 41.90897 3.93201 23885 ft 398 kts 199°
2026-05-05 18:30 41.88220 3.92363 23883 ft 400 kts 197°
2026-05-05 18:30 41.85487 3.91650 23880 ft 401 kts 195°
2026-05-05 18:30 41.82732 3.91011 23880 ft 401 kts 195°
2026-05-05 18:31 41.79969 3.90403 23879 ft 401 kts 194°
2026-05-05 18:31 41.77214 3.89802 23882 ft 401 kts 194°
2026-05-05 18:31 41.74455 3.89194 23878 ft 401 kts 195°
2026-05-05 18:31 41.71706 3.88579 23879 ft 401 kts 195°
2026-05-05 18:32 41.68952 3.87956 23880 ft 401 kts 195°
2026-05-05 18:32 41.66208 3.87330 23712 ft 397 kts 195°
2026-05-05 18:32 41.63532 3.86720 22799 ft 394 kts 195°
2026-05-05 18:32 41.60801 3.86089 21425 ft 403 kts 194°
2026-05-05 18:33 41.58031 3.85447 20513 ft 401 kts 194°
2026-05-05 18:33 41.55302 3.84821 20038 ft 394 kts 194°
2026-05-05 18:33 41.52601 3.84204 19319 ft 391 kts 194°
2026-05-05 18:33 41.49933 3.83590 18123 ft 397 kts 193°
2026-05-05 18:34 41.47191 3.82958 16930 ft 400 kts 193°
2026-05-05 18:34 41.44456 3.82331 15959 ft 396 kts 193°
2026-05-05 18:34 41.41765 3.81718 15274 ft 386 kts 193°
2026-05-05 18:34 41.39160 3.81129 14946 ft 373 kts 193°
2026-05-05 18:35 41.36634 3.80555 14880 ft 373 kts 193°
2026-05-05 18:35 41.34068 3.79969 14878 ft 373 kts 193°
2026-05-05 18:35 41.31507 3.79383 14882 ft 373 kts 193°
2026-05-05 18:35 41.28942 3.78797 14881 ft 373 kts 193°
2026-05-05 18:36 41.26417 3.78221 14880 ft 373 kts 193°
2026-05-05 18:36 41.23855 3.77637 14881 ft 373 kts 193°
2026-05-05 18:36 41.21293 3.77054 14878 ft 373 kts 193°
2026-05-05 18:36 41.18719 3.76470 14880 ft 373 kts 193°
2026-05-05 18:37 41.16206 3.75807 14879 ft 371 kts 197°
2026-05-05 18:37 41.13728 3.74795 14878 ft 370 kts 201°
2026-05-05 18:37 41.11314 3.73673 14878 ft 370 kts 202°
2026-05-05 18:37 41.08901 3.72469 14874 ft 370 kts 203°
2026-05-05 18:38 41.06495 3.71226 14880 ft 369 kts 204°
2026-05-05 18:38 41.04126 3.69985 14878 ft 370 kts 204°
2026-05-05 18:38 41.01731 3.68730 14873 ft 370 kts 204°
2026-05-05 18:38 40.99334 3.67480 14879 ft 370 kts 204°
2026-05-05 18:39 40.96932 3.66235 14871 ft 370 kts 204°
2026-05-05 18:39 40.94532 3.64997 14875 ft 370 kts 204°
2026-05-05 18:39 40.92126 3.63761 14879 ft 370 kts 204°
2026-05-05 18:39 40.89751 3.62543 14875 ft 370 kts 204°
2026-05-05 18:40 40.87342 3.61309 14878 ft 370 kts 204°
2026-05-05 18:40 40.84937 3.60079 14880 ft 370 kts 204°
2026-05-05 18:40 40.82532 3.58849 14874 ft 370 kts 204°
2026-05-05 18:40 40.80130 3.57621 14880 ft 370 kts 204°
2026-05-05 18:41 40.77722 3.56392 14882 ft 370 kts 204°
2026-05-05 18:41 40.75347 3.55179 14883 ft 370 kts 204°
2026-05-05 18:41 40.72943 3.53953 14887 ft 370 kts 204°
2026-05-05 18:41 40.70538 3.52728 14886 ft 370 kts 204°
2026-05-05 18:42 40.68127 3.51500 14886 ft 370 kts 204°
2026-05-05 18:42 40.65749 3.50290 14876 ft 370 kts 204°
2026-05-05 18:42 40.63338 3.49064 14878 ft 370 kts 204°
2026-05-05 18:42 40.60933 3.47842 14880 ft 370 kts 204°
2026-05-05 18:43 40.58518 3.46616 14875 ft 370 kts 204°
2026-05-05 18:43 40.56145 3.45412 14880 ft 370 kts 204°
2026-05-05 18:43 40.53736 3.44191 14876 ft 370 kts 204°
2026-05-05 18:43 40.51330 3.42973 14875 ft 370 kts 204°
2026-05-05 18:44 40.48918 3.41752 14880 ft 370 kts 204°
2026-05-05 18:44 40.46510 3.40535 14881 ft 370 kts 204°
2026-05-05 18:44 40.44108 3.39307 14883 ft 370 kts 205°
2026-05-05 18:44 40.41725 3.38012 14887 ft 370 kts 206°
2026-05-05 18:45 40.39358 3.36700 14882 ft 370 kts 206°
2026-05-05 18:45 40.37014 3.35398 14882 ft 370 kts 206°
2026-05-05 18:45 40.34641 3.34081 14884 ft 370 kts 206°
2026-05-05 18:45 40.32267 3.32765 14877 ft 370 kts 206°
2026-05-05 18:46 40.29900 3.31454 14793 ft 366 kts 206°
2026-05-05 18:46 40.27573 3.30273 14069 ft 363 kts 199°
2026-05-05 18:46 40.25031 3.29774 12761 ft 376 kts 185°
2026-05-05 18:46 40.22377 3.29809 11554 ft 382 kts 182°
2026-05-05 18:47 40.19714 3.29896 10646 ft 380 kts 182°
2026-05-05 18:47 40.17102 3.29974 10119 ft 368 kts 182°
2026-05-05 18:47 40.14581 3.30045 9918 ft 366 kts 182°
2026-05-05 18:47 40.12045 3.30113 9875 ft 354 kts 182°
2026-05-05 18:48 40.09673 3.30187 9874 ft 328 kts 182°
2026-05-05 18:48 40.07460 3.30270 9871 ft 306 kts 182°
2026-05-05 18:48 40.05384 3.30356 9385 ft 301 kts 182°
2026-05-05 18:48 40.03256 3.30436 8396 ft 312 kts 182°
2026-05-05 18:49 40.01039 3.30506 7359 ft 324 kts 182°
2026-05-05 18:49 39.98758 3.30568 6572 ft 326 kts 182°
2026-05-05 18:49 39.96535 3.30624 6119 ft 316 kts 182°
2026-05-05 18:49 39.94406 3.30686 5964 ft 291 kts 182°
2026-05-05 18:50 39.92454 3.30757 5962 ft 274 kts 182°
2026-05-05 18:50 39.90552 3.30829 5977 ft 273 kts 182°
2026-05-05 18:50 39.88668 3.30901 5973 ft 273 kts 182°
2026-05-05 18:50 39.86766 3.30976 5971 ft 273 kts 182°
2026-05-05 18:51 39.84883 3.30862 5967 ft 268 kts 198°
2026-05-05 18:51 39.83268 3.29818 5973 ft 260 kts 220°
2026-05-05 18:51 39.81916 3.28258 5967 ft 259 kts 226°
2026-05-05 18:51 39.80627 3.26628 5507 ft 257 kts 227°
2026-05-05 18:52 39.79354 3.25010 5089 ft 256 kts 227°
2026-05-05 18:52 39.78069 3.23386 4976 ft 255 kts 227°
2026-05-05 18:52 39.76856 3.21864 4950 ft 230 kts 227°
2026-05-05 18:52 39.75743 3.20482 4958 ft 216 kts 227°
2026-05-05 18:53 39.74672 3.19157 4973 ft 215 kts 227°
2026-05-05 18:53 39.73584 3.17815 4971 ft 215 kts 227°
2026-05-05 18:53 39.72496 3.16470 4974 ft 215 kts 227°
2026-05-05 18:53 39.71411 3.15129 4973 ft 215 kts 227°
2026-05-05 18:54 39.70317 3.13788 4972 ft 216 kts 224°
2026-05-05 18:54 39.69319 3.12363 4970 ft 211 kts 246°
2026-05-05 18:54 39.68998 3.10600 4929 ft 198 kts 268°
2026-05-05 18:54 39.68960 3.08916 5027 ft 174 kts 269°
2026-05-05 18:55 39.68998 3.07403 4947 ft 163 kts 276°
2026-05-05 18:55 39.69019 3.05941 4626 ft 165 kts 263°
2026-05-05 18:55 39.68699 3.04474 4197 ft 174 kts 248°
2026-05-05 18:55 39.68121 3.03057 3830 ft 180 kts 243°
2026-05-05 18:56 39.67463 3.01666 3563 ft 181 kts 239°
2026-05-05 18:56 39.66747 3.00345 3302 ft 182 kts 236°
2026-05-05 18:56 39.65968 2.99057 3062 ft 179 kts 238°
2026-05-05 18:56 39.65297 2.97722 2853 ft 175 kts 241°
2026-05-05 18:57 39.64663 2.96385 2625 ft 173 kts 240°
2026-05-05 18:57 39.64034 2.95057 2401 ft 172 kts 240°
2026-05-05 18:57 39.63417 2.93752 2171 ft 170 kts 240°
2026-05-05 18:57 39.62808 2.92445 1941 ft 168 kts 241°
2026-05-05 18:58 39.62244 2.91147 1764 ft 161 kts 242°
2026-05-05 18:58 39.61709 2.89890 1533 ft 158 kts 242°
2026-05-05 18:58 39.61190 2.88664 1349 ft 155 kts 242°
2026-05-05 18:58 39.60679 2.87445 1105 ft 153 kts 241°
2026-05-05 18:59 39.60350 2.86635 939 ft 151 kts 241°
2026-05-05 18:59 39.59837 2.85475 708 ft 143 kts 238°
2026-05-05 18:59 39.59246 2.84306 444 ft 50 kts 228°